D8954 Weather Reports


Display with metric or nautical units.
time (UTC)temp
F
wind
direction
speed
MPH
gust
MPH
rain 1hr
in
rain 24hr
in
rain mn
in
humidity
%
barometer
mb
20260505140504 63 319 3.0 9.0 0.00 0.00 0.00 70 1005.9
20260505125006 66 345 6.0 12.0 0.00 0.00 0.00 66 1006.5
20260505124506 66 325 2.0 6.0 0.00 0.00 0.00 67 1006.4
20260505124006 65 29 4.0 7.0 0.00 0.00 0.00 67 1006.5
20260505123505 65 317 2.0 7.0 0.00 0.00 0.00 67 1006.6
20260505123006 65 342 4.0 8.0 0.00 0.00 0.00 67 1006.6
20260505122506 65 346 5.0 10.0 0.00 0.00 0.00 66 1006.6
20260505122007 65 5 6.0 12.0 0.00 0.00 0.00 65 1006.7
20260505121006 66 7 6.0 12.0 0.00 0.00 0.00 65 1006.7
20260505120006 65 9 0.0 0.0 0.00 0.00 0.00 67 1006.6
20260505115506 64 354 0.0 0.0 0.00 0.00 0.00 67 1006.7
20260505115007 64 319 0.0 0.0 0.00 0.00 0.00 68 1006.8
20260505114506 64 354 0.0 0.0 0.00 0.00 0.00 68 1006.8
20260505113506 64 349 0.0 0.0 0.00 0.00 0.00 68 1007.0
20260505112506 64 324 0.0 0.0 0.00 0.00 0.00 68 1007.0
20260505111506 64 7 0.0 0.0 0.00 0.00 0.00 67 1007.2
20260505111006 65 15 0.0 0.0 0.00 0.00 0.00 66 1007.2
20260505110506 65 325 0.0 0.0 0.00 0.00 0.00 66 1007.2
20260505102006 67 290 0.0 0.0 0.00 0.00 0.00 63 1007.4
20260505101506 68 290 0.0 0.0 0.00 0.00 0.00 63 1007.4
20260505101006 68 36 0.0 0.0 0.00 0.00 0.00 64 1007.5
20260505100507 68 60 0.0 0.0 0.00 0.00 0.00 65 1007.5
20260505100005 67 113 0.0 0.0 0.00 0.00 0.00 64 1007.5
20260505095506 67 110 0.0 0.0 0.00 0.00 0.00 65 1007.6
20260505094506 66 23 0.0 0.0 0.00 0.00 0.00 66 1007.6
20260505093006 65 118 0.0 0.0 0.00 0.00 0.00 68 1007.8
20260505091506 64 140 0.0 0.0 0.00 0.00 0.00 69 1008.0
20260505091006 63 153 0.0 0.0 0.00 0.00 0.00 70 1008.1
20260505090507 63 137 0.0 0.0 0.00 0.00 0.00 71 1008.0
20260505090006 63 142 0.0 0.0 0.00 0.00 0.00 71 1008.1
20260505085506 63 80 0.0 0.0 0.00 0.00 0.00 71 1008.0
20260505085006 62 61 0.0 0.0 0.00 0.00 0.00 73 1008.1
20260505084006 61 49 0.0 0.0 0.00 0.00 0.00 74 1008.1
20260505083505 61 65 0.0 0.0 0.00 0.00 0.00 75 1008.1
20260505083006 60 153 0.0 0.0 0.00 0.00 0.00 73 1008.1
20260505082505 60 324 0.0 0.0 0.00 0.00 0.00 74 1008.1
20260505082005 60 324 0.0 0.0 0.00 0.00 0.00 76 1008.1
20260505081506 59 324 0.0 0.0 0.00 0.00 0.00 77 1008.2
20260505081006 59 323 0.0 0.0 0.00 0.00 0.00 78 1008.2
20260505080506 58 254 0.0 0.0 0.00 0.00 0.00 80 1008.2
20260505080005 58 254 0.0 0.0 0.00 0.00 0.00 80 1008.3
20260505075006 58 251 0.0 0.0 0.00 0.00 0.00 81 1008.4
20260505074506 58 250 0.0 0.0 0.00 0.00 0.00 83 1008.5
20260505073506 57 248 0.0 0.0 0.00 0.00 0.00 84 1008.6
20260505073006 57 248 0.0 0.0 0.00 0.00 0.00 84 1008.6
20260505072506 57 248 0.0 0.0 0.00 0.00 0.00 84 1008.7
20260505072006 57 248 0.0 0.0 0.00 0.00 0.00 84 1008.7
20260505071505 57 248 0.0 0.0 0.00 0.00 0.00 84 1008.8
20260505071006 57 248 0.0 0.0 0.00 0.00 0.00 83 1008.9
20260505070507 57 248 0.0 0.0 0.00 0.00 0.00 83 1008.8
20260505070006 57 248 0.0 0.0 0.00 0.00 0.00 83 1008.8
20260505065006 57 248 0.0 0.0 0.00 0.00 0.00 84 1008.9
20260505064505 57 248 0.0 0.0 0.00 0.00 0.00 84 1008.9
20260505063505 56 283 0.0 0.0 0.00 0.00 0.00 84 1009.0
20260505063006 56 283 0.0 0.0 0.00 0.00 0.00 84 1008.9
20260505062005 56 283 0.0 0.0 0.00 0.00 0.00 83 1008.9
20260505061506 56 283 0.0 0.0 0.00 0.00 0.00 83 1008.9
20260505061006 56 283 0.0 0.0 0.00 0.00 0.00 84 1008.9
20260505060006 55 283 0.0 0.0 0.00 0.00 0.00 84 1008.9
20260505055506 55 283 0.0 0.0 0.00 0.00 0.00 84 1008.9
20260505054506 55 283 0.0 0.0 0.00 0.00 0.00 85 1009.0
20260505054006 55 283 0.0 0.0 0.00 0.00 0.00 85 1009.0
20260505053506 54 283 0.0 0.0 0.00 0.00 0.00 86 1008.9
20260505052505 54 283 0.0 0.0 0.00 0.00 0.00 86 1008.9
20260505052006 53 283 0.0 0.0 0.00 0.00 0.00 86 1009.0
20260505051506 53 283 0.0 0.0 0.00 0.00 0.00 85 1008.9
20260505051006 53 283 0.0 0.0 0.00 0.00 0.00 85 1009.0
20260505050509 53 283 0.0 0.0 0.00 0.00 0.00 85 1008.9
20260505041505 53 283 0.0 0.0 0.00 0.00 0.00 84 1008.9
20260505041005 53 283 0.0 0.0 0.00 0.00 0.00 84 1008.9
20260505040507 53 283 0.0 0.0 0.00 0.00 0.00 84 1008.9
20260505035505 53 283 0.0 0.0 0.00 0.00 0.00 84 1008.8
20260505035005 53 283 0.0 0.0 0.00 0.00 0.00 84 1008.9
20260505034006 53 283 0.0 0.0 0.00 0.00 0.00 84 1008.9
20260505033506 53 283 0.0 0.0 0.00 0.00 0.00 84 1009.0
20260505033008 53 283 0.0 0.0 0.00 0.00 0.00 84 1008.9
20260505032505 53 283 0.0 0.0 0.00 0.00 0.00 84 1009.0
20260505032006 53 283 0.0 0.0 0.00 0.00 0.00 84 1009.1
20260505031505 53 283 0.0 0.0 0.00 0.00 0.00 84 1009.2
20260505031005 54 283 0.0 0.0 0.00 0.00 0.00 83 1009.2
20260505030506 54 284 0.0 0.0 0.00 0.00 0.00 83 1009.3
20260505030005 54 284 0.0 0.0 0.00 0.00 0.00 83 1009.5
20260505025006 54 283 0.0 0.0 0.00 0.00 0.00 84 1009.6
20260505024505 54 283 0.0 0.0 0.00 0.00 0.00 83 1009.6
20260505023505 54 283 0.0 0.0 0.00 0.00 0.00 83 1009.8
20260505023005 54 283 0.0 0.0 0.00 0.00 0.00 84 1009.9
20260505022506 54 283 0.0 0.0 0.00 0.00 0.00 83 1009.9
20260505022006 54 283 0.0 0.0 0.00 0.00 0.00 83 1010.0
20260505021506 54 283 0.0 0.0 0.00 0.00 0.00 82 1009.9
20260505021005 54 283 0.0 0.0 0.00 0.00 0.00 83 1010.0
20260505020507 55 283 0.0 0.0 0.00 0.00 0.00 83 1010.0
20260505020005 55 283 0.0 1.0 0.00 0.00 0.00 83 1010.0
20260505015006 55 283 0.0 0.0 0.00 0.00 0.00 83 1010.1
20260505014505 55 283 0.0 0.0 0.00 0.00 0.00 83 1010.0
20260505014006 55 283 0.0 0.0 0.00 0.00 0.00 83 1010.2
20260505013505 55 284 0.0 0.0 0.00 0.00 0.00 82 1010.2
20260505013005 55 284 0.0 0.0 0.00 0.00 0.00 82 1010.2
20260505012506 55 284 0.0 0.0 0.00 0.00 0.00 82 1010.2
20260505012009 55 284 0.0 0.0 0.00 0.00 0.00 81 1010.3
20260505011505 55 284 0.0 0.0 0.00 0.00 0.00 82 1010.4
20260505010507 55 284 0.0 0.0 0.00 0.00 0.00 82 1010.4
20260505010006 55 284 0.0 0.0 0.00 0.00 0.00 82 1010.4
20260505005006 55 284 1.0 2.0 0.00 0.00 0.00 82 1010.5
20260505004505 55 284 0.0 2.0 0.00 0.00 0.00 82 1010.6
20260505004006 56 284 0.0 1.0 0.00 0.00 0.00 81 1010.6
20260505003506 56 284 1.0 2.0 0.00 0.00 0.00 81 1010.7
20260505003006 56 285 1.0 2.0 0.00 0.00 0.00 81 1010.9
20260505002506 56 285 1.0 1.0 0.00 0.00 0.00 81 1010.9
20260505002006 56 286 1.0 2.0 0.00 0.00 0.00 81 1011.0
20260505001505 56 289 1.0 3.0 0.00 0.00 0.00 81 1011.0
20260505001006 56 250 1.0 2.0 0.00 0.00 0.00 80 1011.0
20260505000507 56 109 0.0 1.0 0.00 0.00 0.00 80 1011.1
20260505000005 56 109 0.0 2.0 0.00 0.00 0.00 79 1011.1
20260504235506 56 109 1.0 2.0 0.00 0.00 0.00 79 1011.2
20260504235006 56 355 2.0 3.0 0.00 0.00 0.00 80 1011.2
20260504234506 56 312 2.0 7.0 0.00 0.00 0.00 80 1011.3
20260504233505 56 315 2.0 3.0 0.00 0.00 0.00 79 1011.4
20260504233005 56 343 0.0 1.0 0.00 0.00 0.00 79 1011.4
20260504232506 57 13 0.0 2.0 0.00 0.00 0.00 79 1011.5
20260504232005 57 13 0.0 3.0 0.00 0.00 0.00 78 1011.5
20260504231506 57 351 2.0 6.0 0.00 0.00 0.00 78 1011.6
20260504231006 57 302 2.0 5.0 0.00 0.00 0.00 78 1011.5
20260504230005 57 229 1.0 2.0 0.00 0.00 0.00 77 1011.5
20260504225506 57 347 2.0 5.0 0.00 0.00 0.00 77 1011.6
20260504224505 57 338 3.0 8.0 0.00 0.00 0.00 77 1011.4
20260504224005 58 350 5.0 10.0 0.00 0.00 0.00 76 1011.5
20260504223505 58 329 6.0 10.0 0.00 0.00 0.00 76 1011.5
20260504223006 58 335 5.0 12.0 0.00 0.00 0.00 76 1011.5
20260504222507 58 1 3.0 9.0 0.00 0.00 0.00 76 1011.6
20260504222005 58 7 2.0 6.0 0.00 0.00 0.00 76 1011.7
20260504221506 58 351 5.0 10.0 0.00 0.00 0.00 76 1011.7
20260504221005 58 0 6.0 8.0 0.00 0.00 0.00 76 1011.7
20260504220506 58 358 3.0 6.0 0.00 0.00 0.00 75 1011.8
20260504215506 58 355 1.0 3.0 0.00 0.00 0.00 75 1012.0
20260504215005 59 341 3.0 8.0 0.00 0.00 0.00 75 1012.0
20260504214506 59 9 5.0 15.0 0.00 0.00 0.00 75 1011.9
20260504213505 58 339 5.0 12.0 0.00 0.00 0.00 75 1012.0
20260504213006 59 332 5.0 10.0 0.00 0.00 0.00 75 1012.0
20260504212506 59 334 3.0 9.0 0.00 0.00 0.00 75 1012.1
20260504212005 59 308 5.0 8.0 0.00 0.00 0.00 74 1012.1
20260504211509 59 328 4.0 8.0 0.00 0.00 0.00 74 1012.1
20260504211005 59 353 3.0 9.0 0.00 0.00 0.00 74 1012.1
20260504210506 59 348 3.0 8.0 0.00 0.00 0.00 74 1012.2
20260504210005 59 329 3.0 8.0 0.00 0.00 0.00 74 1012.2
20260504205506 59 324 3.0 5.0 0.00 0.00 0.00 73 1012.2
20260504205005 59 356 3.0 7.0 0.00 0.00 0.00 73 1012.2
20260504204505 59 325 2.0 5.0 0.00 0.00 0.00 73 1012.2
20260504204009 59 317 2.0 3.0 0.00 0.00 0.00 73 1012.2
20260504203505 59 312 3.0 5.0 0.00 0.00 0.00 73 1012.2
20260504203006 59 339 3.0 3.0 0.00 0.00 0.00 73 1012.2
20260504202506 59 330 2.0 5.0 0.00 0.00 0.00 73 1012.3
20260504202005 58 321 3.0 5.0 0.00 0.00 0.00 74 1012.3
20260504201006 58 292 1.0 3.0 0.00 0.00 0.00 74 1012.3
20260504200505 57 313 3.0 6.0 0.00 0.00 0.00 76 1012.2
20260504195504 58 274 1.0 1.0 0.00 0.00 0.00 75 1012.1
20260504195004 58 274 1.0 2.0 0.00 0.00 0.00 75 1012.1
20260504194504 58 274 1.0 2.0 0.00 0.00 0.00 75 1012.2
20260504194004 59 274 1.0 2.0 0.00 0.00 0.00 74 1012.2
20260504193005 59 274 1.0 1.0 0.00 0.00 0.00 73 1012.2
20260504192504 59 274 1.0 1.0 0.00 0.00 0.00 74 1012.1
20260504192004 59 274 1.0 2.0 0.00 0.00 0.00 74 1012.1
20260504191504 59 274 1.0 2.0 0.00 0.00 0.00 73 1012.1
20260504190504 59 274 1.0 2.0 0.00 0.00 0.00 72 1012.0
20260504190004 59 255 1.0 2.0 0.00 0.00 0.00 72 1012.0
20260504185504 59 248 0.0 2.0 0.00 0.00 0.00 73 1011.9
20260504185004 60 258 1.0 2.0 0.00 0.00 0.00 73 1011.9
20260504184504 60 291 0.0 0.0 0.00 0.00 0.00 72 1011.7
20260504184003 60 291 0.0 0.0 0.00 0.00 0.00 72 1011.7
20260504183504 60 18 0.0 0.0 0.00 0.00 0.00 71 1011.7
20260504183004 60 27 0.0 0.0 0.00 0.00 0.00 71 1011.7
20260504182504 61 27 0.0 0.0 0.00 0.00 0.00 69 1011.7
20260504181503 61 27 0.0 2.0 0.00 0.00 0.00 68 1011.6
20260504181003 62 27 1.0 2.0 0.00 0.00 0.00 68 1011.6
20260504180504 62 27 0.0 1.0 0.00 0.00 0.00 67 1011.6
20260504175004 63 27 0.0 2.0 0.00 0.00 0.00 66 1011.5
20260504174504 63 27 0.0 2.0 0.00 0.00 0.00 65 1011.5
20260504174004 63 27 0.0 1.0 0.00 0.00 0.00 64 1011.4
20260504173504 63 27 0.0 1.0 0.00 0.00 0.00 64 1011.5
20260504173005 64 27 1.0 2.0 0.00 0.00 0.00 64 1011.4
20260504172503 64 28 1.0 3.0 0.00 0.00 0.00 62 1011.4
20260504172004 64 22 1.0 3.0 0.00 0.00 0.00 62 1011.4
20260504171504 65 54 1.0 5.0 0.00 0.00 0.00 62 1011.4
20260504171004 65 18 2.0 3.0 0.00 0.00 0.00 61 1011.4
20260504170504 65 314 1.0 5.0 0.00 0.00 0.00 61 1011.4